Location: Newark
(45.4000°N, 7.8167°E)
Time: 03:50:37
(UTC+00:00)

Tiangong 2 - Visible Passes

Search period start: 18 July 2019 00:00
Search period end: 28 July 2019 00:00
Orbit: 378 x 386 km, 42.8° (Epoch: 17 July)

Date Brightness Start Highest point End Pass type
(mag) Time Alt. Az. Time Alt. Az. Time Alt. Az.
18 Jul 1.8 20:14:08 10° W 20:17:03 36° SSW 20:19:09 16° SE visible
19 Jul 2.8 20:50:48 10° WSW 20:53:05 19° SSW 20:53:28 18° SSW visible
20 Jul 2.4 19:50:11 10° W 19:52:55 27° SSW 19:55:37 10° SE visible
21 Jul 3.4 20:27:24 10° WSW 20:28:50 13° SSW 20:30:04 11° S visible
